Tracking 28052 objects as of 25-Sep-2023
HD Live streaming from Space Station
objects crossing your sky now

STARLINK-2483

Track STARLINK-2483 now!
10-day predictions
STARLINK-2483 is classified as:


NORAD ID: 48140
Int'l Code: 2021-027BA
Perigee: 552.8 km
Apogee: 555.9 km
Inclination: 53.1 °
Period: 95.6 minutes
Semi major axis: 6925 km
RCS: Unknown
Launch date: April 7, 2021
Source: United States (US)
Launch site: AIR FORCE EASTERN TEST RANGE (AFETR)
Your satellite tracking list
Your tracking list is empty




NASA's NSSDC Master Catalog

Two Line Element Set (TLE):
1 48140U 21027BA  23267.92926054  .00013372  00000-0  91483-3 0  9990
2 48140  53.0521 237.3329 0002183  87.5665 272.5573 15.06401784137250
Source of the keplerian elements: AFSPC